Location: Peebles
(55.6412°N, 3.1714°W)
Time: 22:47:50
(UTC+00:00)

FENGYUN 1C DEB - Pass Details

Date: 09 February 2023
Orbit: 707 x 862 km, 98.5° (Epoch: 07 November)

Event Time Altitude Azimuth Distance (km) Brightness Sun altitude
Rises 18:00:26 0° 126° (SE) 3,406 ? -8.3°
Reaches altitude 10° 18:03:02 10° 116° (ESE) 2,478 ? -8.7°
Maximum altitude 18:07:47 31° 57° (ENE) 1,461 ? -9.3°
Drops below altitude 10° 18:12:32 10° 357° (N) 2,472 ? -10.0°
Sets 18:15:07 0° 348° (NNW) 3,397 ? -10.4°
